,,,PA_Meas_PMT16A,,PR_Meas_QMR101_102,,RH_Meas_QMH101,,SR_Meas_QMS101,,TA_Meas_QMH101,,GenWind,,GenWind,
date,time,status,PA,status,PR,status,RH,status,SR,status,TA,status,DirAvg,status,SpdAvg,
2008-08-09, 06:49:04,INVALID - VALUE NOT AVAILABLE,0,VALID,0,VALID,95.4754,VALID,48.1697,VALID,24.231,INVALID,360,INVALID,0,
2008-08-09, 06:50:04,VALID,1004.22,VALID,0,VALID,95.4983,VALID,52.2927,VALID,24.2699,VALID,359,VALID,0.36875,
2008-08-09, 06:51:04,VALID,1004.15,VALID,0,VALID,95.4678,VALID,56.2147,VALID,24.2681,VALID,359,VALID,0.102734,
2008-08-09, 06:52:04,VALID,1004.17,VALID,0,VALID,95.4449,VALID,61.444,VALID,24.307,VALID,359,VALID,0.316016,
2008-08-09, 06:53:04,VALID,1004.14,VALID,0,VALID,95.4297,VALID,67.6789,VALID,24.3459,VALID,359,VALID,0.180469,
2008-08-09, 06:54:04,VALID,1004.17,VALID,0,VALID,95.3381,VALID,76.3273,VALID,24.3849,VALID,359,VALID,0.587109,
2008-08-09, 06:55:04,VALID,1004.19,VALID,0,VALID,95.3076,VALID,83.9701,VALID,24.4238,VALID,359,VALID,0.109375,
2008-08-09, 06:56:04,VALID,1004.17,VALID,0,VALID,95.2389,VALID,90.6072,VALID,24.4822,VALID,29,VALID,0.205859,
2008-08-09, 06:57:04,VALID,1004.2,VALID,0,VALID,95.2084,VALID,95.2331,VALID,24.5212,VALID,65,VALID,0.303906,
2008-08-09, 06:58:04,VALID,1004.2,VALID,0,VALID,95.2008,VALID,99.1551,VALID,24.5796,VALID,65,VALID,0.0464844,
2008-08-09, 06:59:04,VALID,1004.22,VALID,0,VALID,95.0864,VALID,102.876,VALID,24.6204,VALID,87,VALID,0.849609,
2008-08-09, 07:00:04,VALID,1004.18,VALID,0,VALID,95.0253,VALID,106.295,VALID,24.7177,VALID,89,VALID,0.437891,
2008-08-09, 07:01:04,VALID,1004.15,VALID,0,VALID,94.8804,VALID,110.217,VALID,24.7743,VALID,82,VALID,0.2125,
2008-08-09, 07:02:04,VALID,1004.13,VALID,0,VALID,94.8041,VALID,114.441,VALID,24.854,VALID,80,VALID,0.255078,
2008-08-09, 07:03:04,VALID,1004.12,VALID,0,VALID,94.5142,VALID,117.558,VALID,24.8911,VALID,79,VALID,0.607813,
2008-08-09, 07:04:04,VALID,1004.14,VALID,0,VALID,94.293,VALID,119.067,VALID,24.9885,VALID,78,VALID,0.3875,
2008-08-09, 07:05:04,VALID,1004.18,VALID,0,VALID,93.9268,VALID,121.882,VALID,25.0682,VALID,69,VALID,0.277344,
2008-08-09, 07:06:04,VALID,1004.19,VALID,0,VALID,93.6598,VALID,130.631,VALID,25.1248,VALID,63,VALID,0.270703,
2008-08-09, 07:07:04,VALID,1004.2,VALID,0,VALID,93.4538,VALID,142.196,VALID,25.1813,VALID,57,VALID,0.387891,
2008-08-09, 07:08:04,VALID,1004.22,VALID,0,VALID,93.3317,VALID,131.436,VALID,25.3214,VALID,52,VALID,0.09375,
2008-08-09, 07:09:04,VALID,1004.25,VALID,0,VALID,92.8816,VALID,133.648,VALID,25.3584,VALID,26,VALID,0.580078,
2008-08-09, 07:10:04,VALID,1004.29,VALID,0,VALID,92.5993,VALID,136.766,VALID,25.4577,VALID,27,VALID,0.201562,
2008-08-09, 07:11:04,VALID,1004.32,VALID,0,VALID,92.3247,VALID,137.369,VALID,25.5376,VALID,28,VALID,0.547266,
2008-08-09, 07:12:04,VALID,1004.35,VALID,0,VALID,92.3857,VALID,139.883,VALID,25.5746,VALID,31,VALID,0.197656,
2008-08-09, 07:13:04,VALID,1004.39,VALID,0,VALID,91.867,VALID,141.995,VALID,25.633,VALID,30,VALID,0.494531,
2008-08-09, 07:14:04,VALID,1004.38,VALID,0,VALID,91.0125,VALID,144.811,VALID,25.6739,VALID,24,VALID,0.643359,
2008-08-09, 07:15:04,VALID,1004.39,VALID,0,VALID,90.6692,VALID,165.325,VALID,25.6915,VALID,23,VALID,0.352734,
2008-08-09, 07:16:04,VALID,1004.36,VALID,0,VALID,90.4251,VALID,209.271,VALID,25.7713,VALID,17,VALID,0.344531,
2008-08-09, 07:17:04,VALID,1004.37,VALID,0,VALID,89.8377,VALID,199.718,VALID,25.8083,VALID,17,VALID,0.20625,
2008-08-09, 07:18:04,VALID,1004.4,VALID,0,VALID,89.4944,VALID,184.131,VALID,25.9252,VALID,23,VALID,0.379687,
2008-08-09, 07:19:04,VALID,1004.44,VALID,0,VALID,87.9457,VALID,180.51,VALID,25.9817,VALID,71,VALID,0.660937,
2008-08-09, 07:20:04,VALID,1004.47,VALID,0,VALID,87.6406,VALID,190.366,VALID,26.0616,VALID,97,VALID,0.923828,
2008-08-09, 07:21:04,VALID,1004.48,VALID,0,VALID,87.1523,VALID,196.399,VALID,26.0401,VALID,123,VALID,1.1457,
2008-08-09, 07:22:04,VALID,1004.46,VALID,0,VALID,86.6107,VALID,200.724,VALID,26.081,VALID,118,VALID,1.28242,
2008-08-09, 07:23:04,VALID,1004.4,VALID,0,VALID,86.9769,VALID,180.008,VALID,26.0985,VALID,115,VALID,0.673437,
2008-08-09, 07:24:04,VALID,1004.4,VALID,0,VALID,86.1682,VALID,184.533,VALID,26.0985,VALID,134,VALID,1.10586,
2008-08-09, 07:25:04,VALID,1004.42,VALID,0,VALID,86.069,VALID,223.35,VALID,26.118,VALID,157,VALID,1.18438,
2008-08-09, 07:26:04,VALID,1004.53,VALID,0,VALID,86.6336,VALID,261.765,VALID,26.157,VALID,128,VALID,1.08672,
2008-08-09, 07:27:04,VALID,1004.63,VALID,0,VALID,86.4505,VALID,235.317,VALID,26.1959,VALID,119,VALID,1.3918,
2008-08-09, 07:28:04,VALID,1004.7,VALID,0,VALID,86.8548,VALID,214.802,VALID,26.2154,VALID,139,VALID,1.15234,
2008-08-09, 07:29:04,VALID,1004.7,VALID,0,VALID,85.8096,VALID,203.539,VALID,26.2194,VALID,112,VALID,1.02461,
2008-08-09, 07:30:04,VALID,1004.7,VALID,0,VALID,85.7868,VALID,155.47,VALID,26.1979,VALID,110,VALID,1.2668,
2008-08-09, 07:31:04,VALID,1004.7,VALID,0,VALID,85.9241,VALID,132.643,VALID,26.159,VALID,119,VALID,0.618359,
2008-08-09, 07:32:04,VALID,1004.78,VALID,0,VALID,86.336,VALID,127.614,VALID,26.12,VALID,120,VALID,1.05938,
2008-08-09, 07:33:04,VALID,1004.82,VALID,0,VALID,86.5573,VALID,156.476,VALID,26.1005,VALID,158,VALID,1.64727,
2008-08-09, 07:34:04,VALID,1004.9,VALID,0,VALID,87.8084,VALID,251.709,VALID,26.081,VALID,155,VALID,1.2707,
2008-08-09, 07:35:04,VALID,1004.87,VALID,0.5,VALID,88.9833,VALID,439.359,VALID,26.12,VALID,183,VALID,0.890234,
2008-08-09, 07:36:04,VALID,1004.94,VALID,0,VALID,87.9991,VALID,293.744,VALID,26.0616,VALID,150,VALID,1.74297,
2008-08-09, 07:37:04,VALID,1004.91,VALID,0.5,VALID,88.2738,VALID,253.62,VALID,25.8863,VALID,154,VALID,1.52344,
2008-08-09, 07:38:04,VALID,1004.95,VALID,0,VALID,89.3952,VALID,232.502,VALID,25.7499,VALID,190,VALID,1.68828,
2008-08-09, 07:39:04,VALID,1005,VALID,0,VALID,90.4633,VALID,232.703,VALID,25.6525,VALID,133,VALID,1.49805,
2008-08-09, 07:40:04,VALID,1005.04,VALID,0.5,VALID,91.0202,VALID,398.129,VALID,25.5571,VALID,138,VALID,1.20469,
2008-08-09, 07:41:04,VALID,1005.03,VALID,0,VALID,90.7303,VALID,290.627,VALID,25.4792,VALID,149,VALID,1.29727,
2008-08-09, 07:42:04,VALID,1005.05,VALID,0,VALID,90.5701,VALID,396.821,VALID,25.4188,VALID,156,VALID,1.59648,
2008-08-09, 07:43:04,VALID,1005.01,VALID,0,VALID,91.7754,VALID,327.634,VALID,25.4383,VALID,170,VALID,1.10703,
2008-08-09, 07:44:04,VALID,1004.93,VALID,0,VALID,91.5923,VALID,238.133,VALID,25.4792,VALID,202,VALID,1.31641,
2008-08-09, 07:45:04,VALID,1004.92,VALID,0,VALID,92.2561,VALID,225.06,VALID,25.4772,VALID,168,VALID,0.574219,
2008-08-09, 07:46:04,VALID,1004.93,VALID,0,VALID,90.8142,VALID,212.59,VALID,25.4012,VALID,174,VALID,0.849219,
2008-08-09, 07:47:04,VALID,1004.94,VALID,0,VALID,91.3711,VALID,209.271,VALID,25.3623,VALID,111,VALID,0.243359,
2008-08-09, 07:48:04,VALID,1004.92,VALID,0,VALID,91.4855,VALID,205.752,VALID,25.4012,VALID,107,VALID,0.275781,
2008-08-09, 07:49:04,VALID,1004.95,VALID,0,VALID,92.0653,VALID,203.439,VALID,25.4597,VALID,87,VALID,0.742578,
2008-08-09, 07:50:04,VALID,1004.92,VALID,0,VALID,91.7983,VALID,199.416,VALID,25.4986,VALID,93,VALID,0.560156,
2008-08-09, 07:51:04,VALID,1004.95,VALID,0,VALID,91.5771,VALID,186.243,VALID,25.5181,VALID,132,VALID,0.848047,
2008-08-09, 07:52:04,VALID,1004.93,VALID,0,VALID,90.3565,VALID,175.985,VALID,25.5181,VALID,70,VALID,1.11484,
2008-08-09, 07:53:04,VALID,1004.92,VALID,0,VALID,90.4633,VALID,166.834,VALID,25.5571,VALID,106,VALID,0.724609,
2008-08-09, 07:54:04,VALID,1004.94,VALID,0,VALID,90.5319,VALID,162.409,VALID,25.596,VALID,135,VALID,0.907031,
2008-08-09, 07:55:04,VALID,1004.97,VALID,0,VALID,90.4862,VALID,162.309,VALID,25.5746,VALID,91,VALID,0.730859,
2008-08-09, 07:56:04,VALID,1004.99,VALID,0,VALID,89.5936,VALID,163.918,VALID,25.5765,VALID,110,VALID,1.46602,
2008-08-09, 07:57:04,VALID,1004.96,VALID,0,VALID,89.7156,VALID,177.494,VALID,25.596,VALID,54,VALID,0.428906,
2008-08-09, 07:58:04,VALID,1004.93,VALID,0,VALID,89.6241,VALID,182.622,VALID,25.5941,VALID,29,VALID,1.12109,
2008-08-09, 07:59:04,VALID,1004.94,VALID,0,VALID,90.181,VALID,181.214,VALID,25.6155,VALID,32,VALID,0.502344,
2008-08-09, 08:00:04,VALID,1004.94,VALID,0,VALID,89.9979,VALID,172.465,VALID,25.6155,VALID,95,VALID,0.598047,
2008-08-09, 08:01:04,VALID,1004.93,VALID,0,VALID,89.4715,VALID,163.214,VALID,25.635,VALID,64,VALID,0.950391,
2008-08-09, 08:02:04,VALID,1004.96,VALID,0,VALID,89.7385,VALID,156.979,VALID,25.6155,VALID,75,VALID,0.778906,
2008-08-09, 08:03:04,VALID,1004.94,VALID,0,VALID,89.769,VALID,156.979,VALID,25.635,VALID,92,VALID,0.682422,
2008-08-09, 08:04:04,VALID,1004.94,VALID,0,VALID,90.3259,VALID,163.716,VALID,25.633,VALID,70,VALID,0.349609,
2008-08-09, 08:05:04,VALID,1004.96,VALID,0,VALID,90.4404,VALID,162.711,VALID,25.6525,VALID,72,VALID,0.228516,
2008-08-09, 08:06:04,VALID,1004.94,VALID,0,VALID,90.6082,VALID,168.141,VALID,25.6934,VALID,103,VALID,0.482031,
2008-08-09, 08:07:04,VALID,1004.93,VALID,0,VALID,90.1657,VALID,166.633,VALID,25.6934,VALID,100,VALID,1.22969,
2008-08-09, 08:08:04,VALID,1004.88,VALID,0,VALID,90.181,VALID,165.929,VALID,25.7324,VALID,76,VALID,0.53125,
2008-08-09, 08:09:04,VALID,1004.86,VALID,0,VALID,90.2802,VALID,162.309,VALID,25.7713,VALID,84,VALID,0.510547,
2008-08-09, 08:10:04,VALID,1004.87,VALID,0,VALID,90.0589,VALID,160.297,VALID,25.7908,VALID,62,VALID,0.758203,
2008-08-09, 08:11:04,VALID,1004.89,VALID,0,VALID,89.7996,VALID,151.85,VALID,25.7908,VALID,79,VALID,0.8,
2008-08-09, 08:12:04,VALID,1004.91,VALID,0,VALID,89.5173,VALID,154.264,VALID,25.8103,VALID,71,VALID,1.1168,
2008-08-09, 08:13:04,VALID,1004.92,VALID,0,VALID,89.6622,VALID,149.839,VALID,25.8103,VALID,81,VALID,0.687891,
2008-08-09, 08:14:04,VALID,1004.89,VALID,0,VALID,90.3412,VALID,155.671,VALID,25.8687,VALID,40,VALID,0.65,
2008-08-09, 08:15:04,VALID,1004.93,VALID,0,VALID,89.9826,VALID,166.432,VALID,25.8668,VALID,87,VALID,0.776172,
2008-08-09, 08:16:04,VALID,1004.9,VALID,0,VALID,90.12,VALID,190.265,VALID,25.9077,VALID,98,VALID,0.682813,
2008-08-09, 08:17:04,VALID,1004.9,VALID,0,VALID,89.9979,VALID,185.74,VALID,25.9467,VALID,78,VALID,0.835547,
2008-08-09, 08:18:04,VALID,1004.9,VALID,0,VALID,89.8758,VALID,188.153,VALID,25.9642,VALID,55,VALID,0.703516,
2008-08-09, 08:19:04,VALID,1004.89,VALID,0,VALID,89.3723,VALID,185.136,VALID,26.0031,VALID,98,VALID,1.1125,
2008-08-09, 08:20:04,VALID,1004.88,VALID,0,VALID,89.7996,VALID,186.745,VALID,26.0031,VALID,125,VALID,1.00352,
2008-08-09, 08:21:04,VALID,1004.9,VALID,0,VALID,89.6775,VALID,192.477,VALID,26.0635,VALID,108,VALID,1.21055,
2008-08-09, 08:22:04,VALID,1004.89,VALID,0,VALID,89.6851,VALID,195.193,VALID,26.0616,VALID,83,VALID,1.20859,
2008-08-09, 08:23:04,VALID,1004.89,VALID,0,VALID,89.4563,VALID,184.131,VALID,26.081,VALID,109,VALID,1.18359,
2008-08-09, 08:24:04,VALID,1004.89,VALID,0,VALID,89.8072,VALID,174.074,VALID,26.12,VALID,112,VALID,1.14922,
2008-08-09, 08:25:04,VALID,1004.9,VALID,0,VALID,88.9833,VALID,171.359,VALID,26.1395,VALID,108,VALID,2.0082,
2008-08-09, 08:26:04,VALID,1004.9,VALID,0,VALID,89.4486,VALID,175.281,VALID,26.159,VALID,92,VALID,0.764844,
2008-08-09, 08:27:04,VALID,1004.91,VALID,0,VALID,89.5554,VALID,165.225,VALID,26.2174,VALID,87,VALID,0.919531,
2008-08-09, 08:28:04,VALID,1004.92,VALID,0,VALID,88.4645,VALID,147.526,VALID,26.2174,VALID,108,VALID,1.28906,
2008-08-09, 08:29:04,VALID,1004.96,VALID,0,VALID,88.4874,VALID,139.581,VALID,26.2564,VALID,106,VALID,0.971875,
2008-08-09, 08:30:04,VALID,1004.95,VALID,0,VALID,89.4257,VALID,134.754,VALID,26.3148,VALID,117,VALID,0.691406,
2008-08-09, 08:31:04,VALID,1004.98,VALID,0,VALID,89.0595,VALID,130.229,VALID,26.2953,VALID,89,VALID,0.763281,
2008-08-09, 08:32:04,VALID,1004.97,VALID,0,VALID,88.5026,VALID,122.285,VALID,26.3343,VALID,114,VALID,1.28594,
2008-08-09, 08:33:04,VALID,1004.95,VALID,0,VALID,89.0443,VALID,110.619,VALID,26.3323,VALID,116,VALID,1.26836,
2008-08-09, 08:34:04,VALID,1005.01,VALID,0,VALID,88.6705,VALID,104.384,VALID,26.3128,VALID,100,VALID,1.09961,
2008-08-09, 08:35:04,VALID,1005.05,VALID,0,VALID,88.8002,VALID,118.664,VALID,26.3538,VALID,109,VALID,1.35234,
2008-08-09, 08:36:04,VALID,1005.13,VALID,0,VALID,89.1587,VALID,149.034,VALID,26.3343,VALID,106,VALID,1.30039,
2008-08-09, 08:37:04,VALID,1005.15,VALID,0,VALID,89.113,VALID,162.309,VALID,26.3343,VALID,116,VALID,1.01641,
2008-08-09, 08:38:04,VALID,1005.14,VALID,0,VALID,88.9451,VALID,188.153,VALID,26.3538,VALID,131,VALID,2.01758,
2008-08-09, 08:39:04,VALID,1005.11,VALID,0,VALID,88.3882,VALID,209.372,VALID,26.3733,VALID,110,VALID,1.26992,
2008-08-09, 08:40:04,VALID,1005.13,VALID,0,VALID,88.9756,VALID,222.445,VALID,26.4122,VALID,108,VALID,1.17031,
2008-08-09, 08:41:04,VALID,1005.11,VALID,0,VALID,88.3348,VALID,230.189,VALID,26.4512,VALID,106,VALID,1.7418,
2008-08-09, 08:42:04,VALID,1005.09,VALID,0,VALID,88.0983,VALID,242.658,VALID,26.4901,VALID,109,VALID,1.45039,
2008-08-09, 08:43:04,VALID,1005.12,VALID,0,VALID,88.7697,VALID,237.831,VALID,26.5681,VALID,104,VALID,0.471484,
2008-08-09, 08:44:04,VALID,1005.13,VALID,0,VALID,88.8993,VALID,233.407,VALID,26.6265,VALID,103,VALID,0.2375,
2008-08-09, 08:45:04,VALID,1005.08,VALID,0,VALID,88.8765,VALID,220.233,VALID,26.685,VALID,132,VALID,0.988281,
2008-08-09, 08:46:04,VALID,1005.12,VALID,0,VALID,87.7855,VALID,210.177,VALID,26.685,VALID,124,VALID,0.995703,
2008-08-09, 08:47:04,VALID,1005.1,VALID,0,VALID,88.3424,VALID,209.875,VALID,26.7239,VALID,127,VALID,0.703516,
2008-08-09, 08:48:04,VALID,1005.12,VALID,0,VALID,87.9305,VALID,212.087,VALID,26.7414,VALID,96,VALID,1.17266,
2008-08-09, 08:49:04,VALID,1005.09,VALID,0,VALID,86.9006,VALID,229.987,VALID,26.7824,VALID,117,VALID,1.44375,
2008-08-09, 08:50:04,VALID,1005.08,VALID,0,VALID,88.4569,VALID,245.776,VALID,26.8603,VALID,122,VALID,0.912109,
2008-08-09, 08:51:04,VALID,1005.07,VALID,0,VALID,88.1746,VALID,294.549,VALID,26.9188,VALID,113,VALID,0.606641,
2008-08-09, 08:52:04,VALID,1005.05,VALID,0,VALID,87.5414,VALID,259.654,VALID,26.9772,VALID,135,VALID,0.939062,
2008-08-09, 08:53:04,VALID,1005.03,VALID,0,VALID,86.3589,VALID,256.838,VALID,27.0377,VALID,125,VALID,1.70313,
2008-08-09, 08:54:04,VALID,1005.02,VALID,0,VALID,86.1987,VALID,378.921,VALID,27.0162,VALID,137,VALID,1.37227,
2008-08-09, 08:55:04,VALID,1005.02,VALID,0,VALID,87.5719,VALID,403.056,VALID,27.0942,VALID,117,VALID,1.36094,
2008-08-09, 08:56:04,VALID,1005.01,VALID,0,VALID,86.8014,VALID,238.435,VALID,27.1721,VALID,120,VALID,0.947266,
2008-08-09, 08:57:04,VALID,1005.03,VALID,0,VALID,86.6107,VALID,262.57,VALID,27.2306,VALID,110,VALID,0.914063,
2008-08-09, 08:58:04,VALID,1005.03,VALID,0,VALID,86.1072,VALID,440.868,VALID,27.3106,VALID,139,VALID,1.21641,
2008-08-09, 08:59:04,VALID,1005.01,VALID,0,VALID,86.3971,VALID,404.062,VALID,27.3885,VALID,141,VALID,1.2543,
2008-08-09, 09:00:04,VALID,1005.01,VALID,0,VALID,86.9692,VALID,390.586,VALID,27.4059,VALID,123,VALID,0.841797,
2008-08-09, 09:01:04,VALID,1005.02,VALID,0,VALID,85.2146,VALID,354.887,VALID,27.525,VALID,164,VALID,1.24844,
2008-08-09, 09:02:04,VALID,1004.98,VALID,0,VALID,85.1688,VALID,279.666,VALID,27.525,VALID,163,VALID,1.5332,
2008-08-09, 09:03:04,VALID,1004.97,VALID,0,VALID,85.7334,VALID,264.782,VALID,27.5444,VALID,141,VALID,1.0375,
2008-08-09, 09:04:04,VALID,1004.92,VALID,0,VALID,86.0995,VALID,197.908,VALID,27.5813,VALID,151,VALID,1.00586,
2008-08-09, 09:05:04,VALID,1004.94,VALID,0,VALID,85.474,VALID,175.583,VALID,27.6008,VALID,165,VALID,1.5457,
2008-08-09, 09:06:04,VALID,1004.98,VALID,0,VALID,85.001,VALID,182.924,VALID,27.5813,VALID,145,VALID,1.19531,
2008-08-09, 09:07:04,VALID,1004.97,VALID,0,VALID,84.734,VALID,221.339,VALID,27.5403,VALID,140,VALID,2.40156,
2008-08-09, 09:08:04,VALID,1004.94,VALID,0,VALID,85.1993,VALID,186.243,VALID,27.5208,VALID,116,VALID,1.32656,
2008-08-09, 09:09:04,VALID,1004.96,VALID,0,VALID,84.9628,VALID,184.634,VALID,27.4623,VALID,159,VALID,2.42695,
2008-08-09, 09:10:04,VALID,1004.99,VALID,0,VALID,86.3284,VALID,269.81,VALID,27.4449,VALID,138,VALID,2.09648,
2008-08-09, 09:11:04,VALID,1004.96,VALID,0,VALID,86.1453,VALID,285.9,VALID,27.4644,VALID,152,VALID,1.49531,
2008-08-09, 09:12:04,VALID,1004.94,VALID,0,VALID,85.3367,VALID,206.959,VALID,27.4428,VALID,118,VALID,1.95977,
2008-08-09, 09:13:04,VALID,1004.9,VALID,0,VALID,84.5585,VALID,231.697,VALID,27.4839,VALID,130,VALID,2.46914,
2008-08-09, 09:14:04,VALID,1004.94,VALID,0,VALID,85.9927,VALID,230.39,VALID,27.5013,VALID,156,VALID,1.09883,
2008-08-09, 09:15:04,VALID,1004.91,VALID,0,VALID,85.8249,VALID,205.048,VALID,27.5598,VALID,141,VALID,1.56211,
2008-08-09, 09:16:04,VALID,1004.89,VALID,0,VALID,84.6348,VALID,183.125,VALID,27.5618,VALID,140,VALID,1.44922,
2008-08-09, 09:17:04,VALID,1004.89,VALID,0,VALID,85.1612,VALID,174.175,VALID,27.5813,VALID,97,VALID,1.79258,
2008-08-09, 09:18:04,VALID,1004.88,VALID,0,VALID,83.2387,VALID,167.538,VALID,27.5618,VALID,129,VALID,2.71211,
2008-08-09, 09:19:04,VALID,1004.89,VALID,0,VALID,83.1395,VALID,186.343,VALID,27.525,VALID,92,VALID,2.08633,
2008-08-09, 09:20:04,VALID,1004.93,VALID,0,VALID,84.8179,VALID,257.039,VALID,27.5444,VALID,125,VALID,1.54141,
2008-08-09, 09:21:04,VALID,1004.9,VALID,0,VALID,83.6202,VALID,720.534,VALID,27.5618,VALID,115,VALID,2.70273,
2008-08-09, 09:22:04,VALID,1004.89,VALID,0,VALID,85.062,VALID,817.778,VALID,27.7394,VALID,135,VALID,1.75547,
2008-08-09, 09:23:04,VALID,1004.87,VALID,0,VALID,82.9412,VALID,826.728,VALID,27.8758,VALID,115,VALID,2.07266,
2008-08-09, 09:24:04,VALID,1004.84,VALID,0,VALID,82.4301,VALID,274.336,VALID,27.9733,VALID,136,VALID,3.34961,
2008-08-09, 09:25:04,VALID,1004.81,VALID,0,VALID,80.2024,VALID,262.972,VALID,27.9711,VALID,105,VALID,3.55156,
2008-08-09, 09:26:04,VALID,1004.8,VALID,0,VALID,82.8115,VALID,285.699,VALID,27.9927,VALID,137,VALID,2.0457,
2008-08-09, 09:27:04,VALID,1004.77,VALID,0,VALID,81.4307,VALID,372.284,VALID,27.9733,VALID,145,VALID,3.14336,
2008-08-09, 09:28:04,VALID,1004.72,VALID,0,VALID,81.6138,VALID,942.476,VALID,28.0122,VALID,133,VALID,2.33867,
2008-08-09, 09:29:04,VALID,1004.75,VALID,0,VALID,82.041,VALID,789.319,VALID,28.0902,VALID,126,VALID,2.34531,
2008-08-09, 09:30:04,VALID,1004.73,VALID,0,VALID,81.835,VALID,913.011,VALID,28.1292,VALID,150,VALID,2.76016,
2008-08-09, 09:31:04,VALID,1004.71,VALID,0,VALID,81.5756,VALID,874.898,VALID,28.3046,VALID,121,VALID,2.31602,
2008-08-09, 09:32:04,VALID,1004.74,VALID,0,VALID,79.6837,VALID,372.385,VALID,28.4996,VALID,113,VALID,3.30195,
2008-08-09, 09:33:04,VALID,1004.77,VALID,0,VALID,78.669,VALID,883.747,VALID,28.5386,VALID,129,VALID,2.625,
2008-08-09, 09:34:04,VALID,1004.76,VALID,0,VALID,78.6919,VALID,381.134,VALID,28.4584,VALID,119,VALID,2.58047,
2008-08-09, 09:35:04,VALID,1004.79,VALID,0,VALID,79.6455,VALID,287.509,VALID,28.4,VALID,140,VALID,3.25195,
2008-08-09, 09:36:04,VALID,1004.81,VALID,0,VALID,80.8432,VALID,227.373,VALID,28.283,VALID,134,VALID,2.66953,
2008-08-09, 09:37:04,VALID,1004.83,VALID,0,VALID,81.8884,VALID,169.549,VALID,28.1855,VALID,117,VALID,1.95,
2008-08-09, 09:38:04,VALID,1004.76,VALID,0,VALID,80.9577,VALID,118.161,VALID,28.0296,VALID,137,VALID,2.21719,
2008-08-09, 09:39:04,VALID,1004.77,VALID,0,VALID,81.9723,VALID,92.5179,VALID,27.8932,VALID,131,VALID,2.59414,
2008-08-09, 09:40:04,VALID,1004.79,VALID,0,VALID,81.7435,VALID,86.8864,VALID,27.8152,VALID,152,VALID,2.96719,
2008-08-09, 09:41:04,VALID,1004.77,VALID,0,VALID,82.3385,VALID,80.752,VALID,27.6983,VALID,125,VALID,2.15625,
2008-08-09, 09:42:04,VALID,1004.77,VALID,0,VALID,83.2997,VALID,77.534,VALID,27.6203,VALID,104,VALID,1.21211,
2008-08-09, 09:43:04,VALID,1004.75,VALID,0,VALID,83.2845,VALID,72.1036,VALID,27.5813,VALID,134,VALID,1.56445,
2008-08-09, 09:44:04,VALID,1004.76,VALID,0,VALID,82.9336,VALID,70.7963,VALID,27.5034,VALID,152,VALID,2.54219,
2008-08-09, 09:45:04,VALID,1004.77,VALID,0,VALID,83.2235,VALID,70.0924,VALID,27.4644,VALID,141,VALID,2.01992,
2008-08-09, 09:46:04,VALID,1004.8,VALID,0,VALID,83.7727,VALID,73.8132,VALID,27.3865,VALID,139,VALID,2.64102,
2008-08-09, 09:47:04,VALID,1004.78,VALID,0,VALID,83.4142,VALID,76.1262,VALID,27.3064,VALID,123,VALID,3.43438,
2008-08-09, 09:48:04,VALID,1004.8,VALID,0,VALID,84.2305,VALID,77.6346,VALID,27.25,VALID,142,VALID,2.05781,
2008-08-09, 09:49:04,VALID,1004.85,VALID,0,VALID,84.6653,VALID,80.3498,VALID,27.1916,VALID,100,VALID,1.80469,
2008-08-09, 09:50:04,VALID,1004.86,VALID,0,VALID,85.5732,VALID,84.3723,VALID,27.1136,VALID,100,VALID,1.94922,
2008-08-09, 09:51:04,VALID,1004.84,VALID,0.5,VALID,86.214,VALID,90.6072,VALID,26.8993,VALID,128,VALID,1.93867,
2008-08-09, 09:52:04,VALID,1004.78,VALID,0,VALID,87.1828,VALID,92.0151,VALID,26.646,VALID,115,VALID,1.41289,
2008-08-09, 09:53:04,VALID,1004.77,VALID,0,VALID,87.5109,VALID,93.3224,VALID,26.4707,VALID,143,VALID,1.70039,
2008-08-09, 09:54:04,VALID,1004.79,VALID,0,VALID,88.6476,VALID,99.859,VALID,26.3713,VALID,123,VALID,1.30156,
2008-08-09, 09:55:04,VALID,1004.76,VALID,0,VALID,89.8758,VALID,103.278,VALID,26.3538,VALID,147,VALID,0.618359,
2008-08-09, 09:56:04,VALID,1004.74,VALID,0,VALID,90.1505,VALID,109.412,VALID,26.2953,VALID,109,VALID,0.704297,
2008-08-09, 09:57:04,VALID,1004.77,VALID,0,VALID,89.8224,VALID,117.055,VALID,26.2759,VALID,127,VALID,1.57227,
2008-08-09, 09:58:04,VALID,1004.75,VALID,0,VALID,90.2649,VALID,129.223,VALID,26.2349,VALID,144,VALID,0.923828,
2008-08-09, 09:59:04,VALID,1004.76,VALID,0,VALID,89.9064,VALID,146.219,VALID,26.2564,VALID,97,VALID,1.55586,
2008-08-09, 10:00:04,VALID,1004.76,VALID,0,VALID,89.2121,VALID,156.577,VALID,26.2369,VALID,109,VALID,1.975,
2008-08-09, 10:01:04,VALID,1004.76,VALID,0,VALID,89.8758,VALID,160.398,VALID,26.2759,VALID,134,VALID,1.69219,
2008-08-09, 10:02:04,VALID,1004.75,VALID,0,VALID,88.7239,VALID,152.453,VALID,26.2933,VALID,127,VALID,2.03984,
2008-08-09, 10:03:04,VALID,1004.76,VALID,0,VALID,88.6018,VALID,144.61,VALID,26.3128,VALID,127,VALID,1.91562,
2008-08-09, 10:04:04,VALID,1004.77,VALID,0,VALID,88.1822,VALID,144.509,VALID,26.3538,VALID,122,VALID,1.94258,
2008-08-09, 10:05:04,VALID,1004.78,VALID,0,VALID,88.9299,VALID,139.883,VALID,26.3927,VALID,129,VALID,1.16992,
2008-08-09, 10:06:04,VALID,1004.78,VALID,0,VALID,89.2808,VALID,128.318,VALID,26.3713,VALID,94,VALID,0.807031,
2008-08-09, 10:07:04,VALID,1004.8,VALID,0,VALID,88.4798,VALID,120.676,VALID,26.3713,VALID,95,VALID,2.00312,
2008-08-09, 10:08:04,VALID,1004.75,VALID,0,VALID,88.5179,VALID,124.195,VALID,26.3907,VALID,121,VALID,1.24141,
2008-08-09, 10:09:04,VALID,1004.77,VALID,0,VALID,88.7773,VALID,140.587,VALID,26.4297,VALID,114,VALID,0.901953,
2008-08-09, 10:10:04,VALID,1004.71,VALID,0,VALID,88.5408,VALID,163.918,VALID,26.4512,VALID,96,VALID,1.29453,
2008-08-09, 10:11:04,VALID,1004.68,VALID,0,VALID,88.495,VALID,175.382,VALID,26.4492,VALID,117,VALID,1.50352,
2008-08-09, 10:12:04,VALID,1004.68,VALID,0,VALID,88.228,VALID,193.885,VALID,26.5096,VALID,124,VALID,2.40664,
2008-08-09, 10:13:04,VALID,1004.68,VALID,0,VALID,87.9991,VALID,224.859,VALID,26.5486,VALID,136,VALID,1.6582,
2008-08-09, 10:14:04,VALID,1004.7,VALID,0,VALID,87.549,VALID,222.445,VALID,26.5876,VALID,110,VALID,1.85586,
2008-08-09, 10:15:04,VALID,1004.7,VALID,0,VALID,87.7932,VALID,230.189,VALID,26.646,VALID,104,VALID,1.12656,
2008-08-09, 10:16:04,VALID,1004.71,VALID,0,VALID,86.8701,VALID,269.207,VALID,26.6635,VALID,92,VALID,1.71328,
2008-08-09, 10:17:04,VALID,1004.67,VALID,0,VALID,86.5725,VALID,366.25,VALID,26.7219,VALID,119,VALID,1.83828,
2008-08-09, 10:18:04,VALID,1004.67,VALID,0,VALID,86.0538,VALID,421.66,VALID,26.7998,VALID,75,VALID,2.26211,
2008-08-09, 10:19:04,VALID,1004.65,VALID,0,VALID,86.542,VALID,678.196,VALID,26.9188,VALID,109,VALID,2.35117,
2008-08-09, 10:20:04,VALID,1004.59,VALID,0,VALID,84.7263,VALID,471.841,VALID,27.0377,VALID,159,VALID,2.29883,
2008-08-09, 10:21:04,VALID,1004.59,VALID,0,VALID,84.1466,VALID,401.146,VALID,27.1742,VALID,110,VALID,1.59531,
2008-08-09, 10:22:04,VALID,1004.6,VALID,0,VALID,84.0016,VALID,366.652,VALID,27.2521,VALID,113,VALID,2.28398,
2008-08-09, 10:23:04,VALID,1004.58,VALID,0,VALID,85.5808,VALID,389.078,VALID,27.367,VALID,154,VALID,1.62266,